Change the Weather History Date:

Sunday, May 26, 2013

  Actual Average Record
Temperature  
Mean Temperature 51 °F 56 °F  
Max Temperature 66 °F 71 °F 90 °F (1969)
Min Temperature 36 °F 42 °F 23 °F (1975)
Degree Days  
Heating Degree Days 14    
Month to date heating degree days 331  
Since 1 July heating degree days 7790  
Cooling Degree Days 0    
Month to date cooling degree days 2  
Year to date cooling degree days 2  
Moisture  
Dew Point 41 °F    
Average Humidity 63    
Maximum Humidity 86    
Minimum Humidity 40    
Precipitation  
Precipitation 0.06 in 0.09 in 0.50 in (1940)
Month to date precipitation 2.13 1.97  
Year to date precipitation 3.32 5.42  
Snow  
Snow 0.00 in 0.10 in T in (1973)
Month to date snowfall 1.8 2.3  
Since 1 July snowfall 24.6 39.8  
Snow Depth 0.00 in    
Sea Level Pressure  
Sea Level Pressure 29.92 in    
Wind  
Wind Speed 5 mph (South)    
Max Wind Speed 28 mph    
Max Gust Speed 36 mph    
Visibility 10 miles    
Events Rain , Thunderstorm    
T = Trace of Precipitation, MM = Missing Value Source: NWS Daily Summary

Daily Weather History Graph

Daily Weather History Graph

Search for Another Location

Airport or City:

Trip Planner

Search our weather history database for the weather conditions in past years. The results will help you decide how hot, cold, wet, or windy it might be!

Date:

Astronomy

May. 26, 2013 Rise Set
Actual Time 5:42 AM MDT 9:01 PM MDT
Civil Twilight 5:05 AM MDT 9:38 PM MDT
Nautical Twilight 4:18 AM MDT 10:26 PM MDT
Astronomical Twilight 3:18 AM MDT 11:26 PM MDT
Moon 10:50 PM MDT (5/26) 7:16 AM MDT (5/26)
Length of Visible Light 16h 32m
Length of Day
15h 19m
Waning Gibbous, 96% of the Moon is Illuminated
May 26
Waning Gibbous
May 31
Last Quarter
Jun 8
New
Jun 16
First Quarter
Jun 23
Full

Hourly Weather History & Observations

Time (MDT) Temp. Windchill Dew Point Humidity Pressure Visibility Wind Dir Wind Speed Gust Speed Precip Events Conditions
12:56 AM 43.0 °F 39.5 °F 37.0 °F 80% 29.97 in 10.0 mi SE 5.8 mph - N/A   Clear
1:56 AM 44.1 °F 38.1 °F 37.9 °F 79% 29.96 in 10.0 mi SSE 11.5 mph - N/A   Clear
2:56 AM 42.1 °F 37.7 °F 36.0 °F 79% 29.97 in 10.0 mi South 6.9 mph - N/A   Clear
3:56 AM 41.0 °F - 36.0 °F 82% 29.98 in 10.0 mi Calm Calm - N/A   Clear
4:56 AM 37.0 °F 32.4 °F 34.0 °F 89% 29.98 in 10.0 mi East 5.8 mph - N/A   Clear
5:56 AM 37.9 °F 32.7 °F 34.0 °F 86% 29.97 in 10.0 mi SSE 6.9 mph - N/A   Clear
6:56 AM 41.0 °F 38.0 °F 37.0 °F 86% 29.96 in 10.0 mi SSE 4.6 mph - N/A   Clear
7:56 AM 46.9 °F - 37.9 °F 71% 29.94 in 10.0 mi South 4.6 mph - N/A   Clear
8:56 AM 51.1 °F - 39.0 °F 63% 29.95 in 10.0 mi Calm Calm - N/A   Clear
9:56 AM 53.1 °F - 41.0 °F 64% 29.94 in 10.0 mi Calm Calm - N/A   Clear
10:56 AM 55.0 °F - 41.0 °F 59% 29.92 in 10.0 mi Calm Calm - N/A   Clear
11:56 AM 57.0 °F - 41.0 °F 55% 29.91 in 10.0 mi Calm Calm - N/A   Partly Cloudy
12:56 PM 59.0 °F - 42.1 °F 53% 29.92 in 10.0 mi NNW 3.5 mph - N/A   Partly Cloudy
1:56 PM 63.0 °F - 41.0 °F 45% 29.88 in 10.0 mi Calm Calm - N/A   Clear
2:56 PM 64.9 °F - 42.1 °F 43% 29.87 in 10.0 mi Calm Calm - N/A   Overcast
3:56 PM 64.9 °F - 39.0 °F 39% 29.86 in 10.0 mi WSW 6.9 mph - N/A   Mostly Cloudy
4:56 PM 57.9 °F - 50.0 °F 75% 29.90 in 10.0 mi SSW 13.8 mph - 0.01 in Rain Light Rain
5:56 PM 63.0 °F - 43.0 °F 48% 29.86 in 10.0 mi East 5.8 mph - 0.00 in   Clear
6:56 PM 64.0 °F - 44.1 °F 48% 29.83 in 10.0 mi North 4.6 mph - N/A   Partly Cloudy
7:56 PM 54.0 °F - 44.1 °F 69% 29.84 in 10.0 mi NW 6.9 mph - N/A   Partly Cloudy
8:15 PM 53.6 °F - 39.2 °F 58% 29.91 in 10.0 mi West 24.2 mph 33.4 mph N/A Thunderstorm Mostly Cloudy
8:56 PM 48.0 °F - 44.1 °F 86% 29.93 in 10.0 mi North 10.4 mph - 0.01 in Thunderstorm Overcast
9:44 PM 48.2 °F - 42.8 °F 82% 29.95 in 10.0 mi South 3.5 mph - 0.01 in   Overcast
9:56 PM 48.9 °F - 44.1 °F 83% 29.95 in 10.0 mi South 9.2 mph - 0.01 in   Overcast
10:56 PM 46.0 °F 41.9 °F 43.0 °F 89% 29.92 in 10.0 mi ESE 8.1 mph - 0.03 in   Partly Cloudy
11:56 PM 46.9 °F - 43.0 °F 86% 29.92 in 10.0 mi SW 6.9 mph - N/A   Partly Cloudy